Location: Hains Lake
(37.8540°N, 99.8578°W)
Time: 03:51:03
(UTC+00:00)

Tiros 1 despin weight - Pass Details

Date: 24 April 2021
Orbit: 593 x 642 km, 48.2° (Epoch: 07 May)

Event Time Altitude Azimuth Distance (km) Brightness Sun altitude
Rises 16:21:01 0° 301° (WNW) 2,873 ? 50.9°
Reaches altitude 10° 16:23:21 10° 298° (WNW) 1,958 ? 51.3°
Maximum altitude 16:27:46 60° 219° (SW) 688 ? 52.0°
Drops below altitude 10° 16:32:07 10° 139° (SE) 1,923 ? 52.7°
Sets 16:34:24 0° 135° (SE) 2,818 ? 53.1°
